Location: La Painière
(48.1059°N, 1.3543°W)
Time: 22:26:24
(UTC+00:00)

Daily predictions for brighter satellites

Satellite Brightness Start Highest point End
(mag) Time Altitude Azimuth Time Altitude Azimuth Time Altitude Azimuth
CZ-2C R/B 4.0 16:38:20 10° N 16:43:11 38° WNW 16:47:57 10° SW
Tsikada Rocket 4.3 16:39:58 10° SSW 16:46:11 72° W 16:52:23 10° N
Cosmos 1544 2.7 16:42:59 10° N 16:46:14 69° E 16:49:28 10° SSE
Cosmos 1238 Rocket 3.4 16:45:51 10° SSW 16:49:21 49° W 16:52:26 10° N
ATLAS CENTAUR R/B 2.5 16:45:53 10° NW 16:49:37 61° NE 16:56:45 10° ESE
SL-16 R/B 2.7 16:44:20 10° NNW 16:50:01 69° WSW 16:55:37 10° SSE
Cosmos 1602 4.3 16:49:29 10° N 16:52:55 33° ENE 16:56:20 10° SE
SL-8 R/B 3.9 16:48:54 10° W 16:53:40 74° SSW 16:58:27 10° ESE
RESURS DK-1 4.3 16:53:10 10° NNE 16:54:24 11° NE 16:55:39 10° NE
USA 305 2.6 16:50:38 10° WNW 16:54:26 67° NNE 16:58:15 10° ESE
Cosmos 1607 4.1 16:49:27 10° SW 16:55:48 86° NW 17:02:18 10° NE
Cosmos 1606 4.2 16:53:11 10° SW 16:56:32 35° WNW 16:59:56 10° N
CZ-4B R/B 4.3 16:55:10 10° ESE 16:59:25 28° ENE 17:03:35 10° N
Cosmos 1943 3.3 16:55:25 10° NNW 17:00:55 51° NE 17:06:25 10° SE
ATLAS 2AS CENTAUR R/B 3.4 16:56:00 10° NW 17:02:16 33° NNE 17:08:16 10° E
Helios 1A 4.4 16:59:31 10° NE 17:02:32 19° E 17:05:33 10° SE
Cosmos 1500 2.9 17:01:09 10° N 17:04:42 79° E 17:08:13 10° SSE
Cosmos 1953 Rocket 4.5 17:01:33 10° NNW 17:05:54 54° W 17:10:12 10° S
SMAP 3.1 17:01:21 10° SSE 17:05:54 58° ENE 17:10:30 10° N
Helios 1B rocket 2.5 17:02:27 10° S 17:06:23 76° WSW 17:10:21 10° NNW
CZ-4B R/B 3.8 17:05:51 10° SE 17:09:17 46° ENE 17:12:48 10° N
Cosmos 2297 Rocket 3.9 17:07:18 10° WSW 17:12:06 28° NW 17:16:55 10° NNE
Cosmos 407 Rocket 3.8 17:07:33 10° N 17:12:25 40° ENE 17:17:14 10° SE
SL-16 R/B 4.3 17:08:26 10° N 17:13:39 28° WNW 17:18:50 10° WSW
SOZ 3.9 17:11:43 10° WSW 17:13:52 78° NNW 17:16:19 15° ENE
Cosmos 405 Rocket 3.6 17:11:37 10° SSW 17:15:19 51° WNW 17:19:06 10° N
ISS -2.2 17:15:01 10° WNW 17:18:09 36° SW 17:21:16 10° SE
Cosmos 2219 3.8 17:12:58 10° SW 17:18:28 56° WNW 17:24:02 10° NNE
Cosmos 2251 Rocket 3.7 17:15:03 10° NNW 17:20:15 50° ENE 17:25:28 10° SE
Radarsat 4.5 17:22:32 10° SSE 17:27:43 81° ENE 17:32:57 10° NNW
Cosmos 2151 4.3 17:24:48 10° NNW 17:28:52 44° W 17:32:54 10° SSW
Lacrosse 5 3.0 17:24:56 10° S 17:29:05 26° SE 17:31:43 17° E
Cosmos-2242 3.1 17:26:40 10° S 17:30:55 57° E 17:35:09 10° NNE
COSMO-SKYMED 1 3.6 17:29:30 16° NE 17:32:04 26° E 17:35:43 10° SSE
Lacrosse 4 Rocket 1.4 17:28:19 10° NNW 17:32:42 82° ENE 17:36:56 10° SE
Cosmos 1833 Rocket 4.4 17:30:16 10° N 17:33:05 14° NNE 17:33:48 13° NE
Cosmos 2082 4.0 17:27:56 10° SW 17:33:31 66° WNW 17:39:09 10° NNE
Cosmos 2058 Rocket 4.0 17:29:40 10° SSW 17:33:59 49° WNW 17:38:16 10° N
APEX 2.7 17:36:12 10° S 17:39:05 47° ESE 17:39:58 33° ENE
Meteor 2-2 Rocket 4.4 17:35:04 10° SSE 17:40:36 52° E 17:46:19 10° NNE
Cosmos 1023 Rocket 4.4 17:36:11 10° NNW 17:41:22 87° WSW 17:46:28 10° SSE
Cosmos 2344 3.6 17:34:05 10° SSW 17:41:28 55° ESE 17:47:04 17° NE
Cosmos 2221 3.8 17:38:30 10° SE 17:41:02 20° E 17:41:02 20° E
Meteor 1-25 Rocket 4.1 17:36:30 10° N 17:42:10 67° ENE 17:47:43 10° SSE
USA 234 3.6 17:37:35 18° ENE 17:42:27 52° SE 17:48:47 10° SSW
Cosmos 1812 2.5 17:40:21 10° S 17:44:00 75° E 17:47:41 10° NNE
Cosmos 1190 Rocket 4.3 17:39:27 10° NNW 17:44:33 44° ENE 17:49:36 10° SE
Cosmos 1818 3.8 17:40:10 10° SSW 17:45:24 51° ESE 17:48:46 22° NE
USA 276 1.3 17:45:17 10° WSW 17:47:42 89° S 17:48:03 61° ENE
Cosmos 2026 Rocket 4.2 17:41:51 10° SSE 17:47:47 47° E 17:53:49 10° NNE
AQUARIUS 4.4 17:45:51 10° S 17:50:17 70° WSW 17:54:46 10° NNW
Cosmos 2195 Rocket 4.5 17:48:38 10° S 17:54:51 62° E 18:01:02 10° NNE
USA 307 4.1 17:54:27 10° WNW 17:58:01 36° SW 18:01:30 10° SSE
Cosmos 2263 Rocket 3.0 17:54:16 10° SW 17:59:40 49° NW 18:05:03 10° NNE
Cosmos 1844 Rocket 3.0 17:54:29 10° S 17:59:41 42° ESE 18:02:02 28° ENE
Cosmos 1766 Rocket 3.9 17:59:37 10° N 18:03:45 39° ENE 18:07:49 10° SE
Cosmos 1092 Rocket 3.9 17:59:12 10° S 18:05:14 64° E 18:11:19 10° NNE
Nadezhda 4 Rocket 4.2 17:59:12 10° SSW 18:05:19 73° W 18:11:28 10° N
YAOGAN 1 3.7 18:07:02 26° NNE 18:07:02 26° NNE 18:09:22 10° N
Cosmos 1933 3.3 18:02:37 10° S 18:06:31 57° E 18:07:55 36° NE
Cosmos 1420 Rocket 4.4 18:02:03 10° S 18:06:57 42° ESE 18:08:27 33° ENE
Cosmos 2227 4.2 18:02:27 10° SSW 18:08:14 89° WNW 18:12:32 19° NNE
Cosmos 2227 Rocket 4.3 18:04:32 10° W 18:08:41 20° NW 18:12:50 10° N
Cosmos 1140 Rocket 4.2 18:03:53 10° NNW 18:08:56 55° WSW 18:13:56 10° S
Cosmos 2082 Rocket 4.3 18:09:05 10° NNE 18:09:21 10° NNE 18:09:21 10° NNE
ADEOS 3.5 18:05:33 10° SSE 18:10:40 60° ENE 18:15:49 10° N
Meteor 1-5 Rocket 4.2 18:07:15 10° N 18:12:53 61° ENE 18:18:40 10° SSE
Cosmos 1624 Rocket 4.3 18:09:50 10° S 18:14:45 43° ESE 18:15:39 40° ENE
BREEZE-M DEB (TANK) 2.3 18:13:41 10° W 18:15:04 42° WNW 18:15:04 42° WNW
CZ-4B R/B 4.1 18:20:41 28° NNE 18:20:41 28° NNE 18:22:55 10° N
SKYMED 2 3.4 18:18:07 28° NNE 18:20:21 79° ESE 18:24:42 10° S
CBERS 1 LM4 rocket 4.4 18:15:43 10° S 18:20:30 76° WSW 18:25:16 10° NNW
Cosmos 1603 4.2 18:15:33 10° NNW 18:21:10 62° WSW 18:26:42 10° S
SL-08 R/B 3.1 18:25:44 49° NE 18:26:46 64° ESE 18:31:22 10° S
Cosmos 192 4.2 18:22:16 10° SSW 18:27:09 75° ESE 18:28:35 46° NE
RESURS DK-1 3.0 18:29:02 10° NNW 18:31:56 41° N 18:31:56 41° N
Meteor 2-17 Rocket 4.5 18:27:41 10° S 18:33:50 82° W 18:40:00 10° N
Cosmos 1782 3.4 18:32:51 10° SSW 18:36:41 55° WNW 18:38:16 32° NNW
Helios 1A 4.0 18:35:01 17° N 18:38:00 45° WNW 18:41:57 10° SW
Cosmos 676 Rocket 3.9 18:33:12 10° NNW 18:38:33 74° ENE 18:40:04 46° SE
EO 1 Delta rocket 4.4 18:42:42 10° S 18:49:26 87° WSW 18:54:47 10° N
ATLAS 2AS CENTAUR R/B 2.6 18:47:03 10° NW 18:54:00 87° SW 18:56:38 40° SE
CZ-4B DEB 4.1 18:53:03 31° SSE 18:55:52 84° ENE 19:01:27 10° NNW
Cosmos 1241 Rocket 4.3 18:53:36 10° SSW 18:59:59 77° ESE 19:00:35 71° ENE
COSMO-SKYMED 1 4.0 19:06:43 27° NNW 19:08:18 35° WNW 19:12:15 10° SW
Cosmos 2056 Rocket 3.7 19:03:13 10° SSW 19:08:36 70° WNW 19:09:06 65° NNW
Cosmos 1844 3.9 19:05:49 10° SW 19:11:35 69° WNW 19:12:19 61° NNW
Lacrosse 5 2.2 19:06:36 10° WSW 19:10:56 63° W 19:10:56 63° W
COSMOS 2455 3.6 19:06:17 10° SSW 19:10:14 40° S 19:10:14 40° S
Timation 2 Rocket 4.1 19:08:40 10° SW 19:14:35 66° WNW 19:15:41 55° N
Cosmos 1833 Rocket 4.1 19:12:54 10° NNW 19:15:30 26° N 19:15:30 26° N
Cosmos 2221 4.0 19:14:46 10° SW 19:17:46 34° WSW 19:17:46 34° WSW
USA 234 3.4 19:24:56 62° N 19:25:35 65° NNW 19:32:03 10° WSW
Cosmos 1844 Rocket 3.9 19:38:30 10° WSW 19:43:38 37° NW 19:43:44 37° NW
Cosmos 2344 4.3 19:49:08 10° WSW 19:56:04 43° NNW 19:57:06 41° N
